This demonstration page uses our WeatherBlox Daily Observations layout. Learn more.

Left ArrowRight Arrow

39.01783, -85.05884

Hourly Observations for March 20, 2022

Temp ( °F °C ) Dew Point ( °F °C ) Humidity (%) Winds ( mph kmh ) Pressure ( in mb ) Visibility ( mi km ) Precip ( " mm )
12:11 am 00:11 Cloudy with Light Rain 41 5 41 5 100 100 W 10 17 30.07 1018 4 6 0.00 0.00
12:52 am 00:52 Cloudy with Light Rain 41 5 41 5 100 100 WSW 8 13 30.04 1017 6 10 0.01 0.25
1:52 am 01:52 Cloudy with Light Rain 42 5.6 42 5.6 100 100 W 9 15 30.05 1018 10 16 0.00 0.00
2:28 am 02:28 Cloudy with Light Rain 42 5.6 42 5.6 100 100 W 10 17 30.10 1019 10 16 0.01 0.25
2:52 am 02:52 Cloudy 42 5.6 42 5.6 100 100 W 8 13 30.07 1018 10 16 0.01 0.25
3:52 am 03:52 Cloudy 42 5.6 42 5.6 100 100 W 6 9 30.06 1018 9 14 0.00 0.00
3:59 am 03:59 Cloudy 42 5.6 42 5.6 100 100 W 6 9 30.09 1019 9 14 0.00 0.00
4:52 am 04:52 Cloudy 42 5.6 42 5.6 100 100 WSW 6 9 30.07 1018 9 14 0.00 0.00
5:52 am 05:52 Partly Cloudy 40 4.4 40 4.4 100 100 SW 6 9 30.08 1019 10 16 0.00 0.00
6:52 am 06:52 Clear 40 4.4 38 3.3 93 93 WSW 5 7 30.11 1020 10 16 0.00 0.00
7:52 am 07:52 Sunny 39 3.9 38 3.3 96 96 WSW 5 7 30.13 1020 10 16 0.00 0.00
8:52 am 08:52 Sunny 41 5 38 3.3 89 89 WSW 8 13 30.15 1021 10 16 0.00 0.00
9:52 am 09:52 Sunny 44 6.7 40 4.4 85 85 W 10 17 30.17 1022 10 16 0.00 0.00
10:52 am 10:52 Sunny 48 8.9 40 4.4 74 74 W 10 17 30.18 1022 10 16 0.00 0.00
11:52 am 11:52 Mostly Sunny 51 10.6 38 3.3 61 61 WNW 13 20 30.19 1022 10 16 0.00 0.00
12:52 pm 12:52 Sunny 54 12.2 35 1.7 49 49 WNW 10 17 30.20 1023 10 16 0.00 0.00
1:52 pm 13:52 Sunny 56 13.3 31 -0.6 39 39 W 9 15 30.20 1023 10 16 0.00 0.00
2:52 pm 14:52 Sunny 59 15 32 0 36 36 NNW 7 11 30.19 1022 10 16 0.00 0.00
3:52 pm 15:52 Sunny 60 15.6 31 -0.6 33 33 W 10 17 30.17 1022 10 16 0.00 0.00
4:52 pm 16:52 Sunny 61 16.1 33 0.6 35 35 W 8 13 30.18 1022 10 16 0.00 0.00
5:52 pm 17:52 Mostly Sunny 61 16.1 32 0 34 34 NW 10 17 30.18 1022 10 16 0.00 0.00
6:52 pm 18:52 Mostly Sunny 60 15.6 33 0.6 36 36 WNW 7 11 30.18 1022 10 16 0.00 0.00
7:52 pm 19:52 Mostly Clear 56 13.3 32 0 40 40 Calm 30.18 1022 10 16 0.00 0.00
8:52 pm 20:52 Partly Cloudy 55 12.8 32 0 42 42 S 3 6 30.19 1022 10 16 0.00 0.00
9:52 pm 21:52 Partly Cloudy 50 10 33 0.6 52 52 S 5 7 30.20 1023 10 16 0.00 0.00
10:52 pm 22:52 Clear 48 8.9 33 0.6 56 56 SSW 6 9 30.20 1023 10 16 0.00 0.00
11:52 pm 23:52 Clear 46 7.8 34 1.1 63 63 SSW 7 11 30.21 1023 10 16 0.00 0.00

Powered by AerisWeather